This demonstration page uses our WeatherBlox Daily Observations layout. Learn more.

39.51506, -84.39828

Hourly Observations for November 28, 2019

Temp ( °F °C ) Dew Point ( °F °C ) Humidity (%) Winds ( mph kmh ) Pressure ( in mb ) Visibility ( mi km ) Precip ( " mm )
12:15 am 00:15 Cloudy 39 3.8 27 -2.8 62 62 W 15 24 30.27 1025 10 16.0934 0 0
12:35 am 00:35 Cloudy 38 3.6 27 -2.9 63 63 W 14 22 30.28 1025 10 16.0934 0 0
12:55 am 00:55 Cloudy 38 3.5 27 -2.6 65 65 W 17 28 30.29 1026 10 16.0934 0 0
1:15 am 01:15 Cloudy 38 3.4 28 -2.5 66 66 W 18 30 30.29 1026 10 16.0934 0 0
1:35 am 01:35 Cloudy 38 3.2 28 -2.5 67 67 W 16 26 30.31 1026 10 16.0934 0 0
1:55 am 01:55 Cloudy 37 3 28 -2.3 68 68 W 9 15 30.31 1026 10 16.0934 0 0
2:15 am 02:15 Cloudy 37 3 28 -2.4 68 68 WNW 14 22 30.31 1026 10 16.0934 0 0
2:35 am 02:35 Cloudy 37 2.9 28 -2.3 69 69 WNW 12 19 30.32 1027 10 16.0934 0 0
2:55 am 02:55 Cloudy 37 2.9 28 -2.1 70 70 WNW 10 17 30.34 1027 10 16.0934 0 0
3:15 am 03:15 Cloudy 37 2.8 28 -2.3 69 69 WNW 13 20 30.35 1028 10 16.0934 0 0
3:35 am 03:35 Cloudy 37 2.8 28 -2.4 69 69 WNW 16 26 30.35 1028 10 16.0934 0 0
3:55 am 03:55 Cloudy 37 2.7 28 -2.3 70 70 NW 13 20 30.35 1028 10 16.0934 0 0
4:15 am 04:15 Cloudy 37 2.6 28 -2.4 70 70 WNW 8 13 30.36 1028 10 16.0934 0 0
4:35 am 04:35 Cloudy 37 2.6 28 -2.3 70 70 NW 13 20 30.37 1028 10 16.0934 0 0
4:55 am 04:55 Cloudy 37 2.6 28 -2.1 71 71 WNW 8 13 30.38 1029 10 16.0934 0 0
5:15 am 05:15 Cloudy 37 2.5 29 -1.9 73 73 NW 7 11 30.39 1029 10 16.0934 0 0
5:35 am 05:35 Cloudy 37 2.5 28 -2.2 71 71 WNW 10 17 30.4 1029 10 16.0934 0 0
5:55 am 05:55 Cloudy 36 2.4 27 -2.8 69 69 NW 8 13 30.4 1029 10 16.0934 0 0
6:15 am 06:15 Cloudy 36 2.4 27 -2.7 69 69 NW 8 13 30.41 1030 10 16.0934 0 0
6:35 am 06:35 Cloudy 36 2.3 27 -2.9 69 69 NW 13 20 30.42 1030 10 16.0934 0 0
6:55 am 06:55 Cloudy 36 2.4 27 -3 68 68 WNW 8 13 30.43 1030 10 16.0934 0 0
7:15 am 07:15 Cloudy 36 2.3 27 -2.9 69 69 WNW 9 15 30.45 1031 10 16.0934 0 0
7:35 am 07:35 Cloudy 36 2.3 27 -2.9 69 69 NW 9 15 30.45 1031 10 16.0934 0 0
7:55 am 07:55 Cloudy 36 2.2 27 -2.9 69 69 NW 7 11 30.46 1031 10 16.0934 0 0
8:15 am 08:15 Cloudy 36 2.2 27 -2.9 69 69 NW 8 13 30.47 1032 10 16.0934 0 0
8:35 am 08:35 Cloudy 36 2.3 27 -3 68 68 NNW 6 9 30.46 1031 10 16.0934 0 0
8:55 am 08:55 Cloudy 36 2.3 26 -3.3 67 67 NNW 10 17 30.48 1032 10 16.0934 0 0
9:15 am 09:15 Cloudy 36 2.4 26 -3.2 67 67 WNW 13 20 30.49 1032 10 16.0934 0 0
9:35 am 09:35 Cloudy 37 2.5 26 -3.2 66 66 NNW 9 15 30.49 1032 10 16.0934 0 0
9:55 am 09:55 Cloudy 37 2.7 26 -3.1 66 66 WNW 7 11 30.49 1032 10 16.0934 0 0
10:15 am 10:15 Cloudy 37 2.7 26 -3.1 66 66 NW 14 22 30.5 1033 10 16.0934 0 0
10:35 am 10:35 Cloudy 37 3 27 -2.9 66 66 NW 15 24 30.5 1033 10 16.0934 0 0
10:55 am 10:55 Cloudy 37 3 27 -2.9 66 66 NW 9 15 30.51 1033 10 16.0934 0 0
11:15 am 11:15 Cloudy 38 3.3 27 -2.6 66 66 NNW 6 9 30.5 1033 10 16.0934 0 0
11:35 am 11:35 Cloudy 38 3.2 27 -2.7 66 66 NNW 10 17 30.5 1033 10 16.0934 0 0
11:55 am 11:55 Cloudy 38 3.3 27 -2.9 64 64 NNW 6 9 30.49 1032 10 16.0934 0 0
12:15 pm 12:15 Cloudy 38 3.5 27 -2.7 64 64 N 6 9 30.48 1032 10 16.0934 0 0
12:35 pm 12:35 Cloudy 38 3.5 27 -2.6 65 65 NW 8 13 30.47 1032 10 16.0934 0 0
12:55 pm 12:55 Cloudy 39 3.7 27 -2.6 64 64 NNE 8 13 30.45 1031 10 16.0934 0 0
1:15 pm 13:15 Cloudy 39 4 28 -2.2 64 64 N 9 15 30.44 1031 10 16.0934 0 0
1:35 pm 13:35 Cloudy 39 4.1 28 -2.3 63 63 N 10 17 30.43 1031 10 16.0934 0 0
1:55 pm 13:55 Cloudy 39 4 28 -2.2 64 64 N 5 7 30.44 1031 10 16.0934 0 0
2:15 pm 14:15 Cloudy 39 3.9 28 -2.1 65 65 NW 5 7 30.47 1032 10 16.0934 0 0
2:35 pm 14:35 Cloudy 39 3.8 28 -2.2 65 65 NNW 6 9 30.48 1032 10 16.0934 0 0
2:55 pm 14:55 Cloudy 39 3.9 28 -2 66 66 N 6 9 30.47 1032 10 16.0934 0 0
3:15 pm 15:15 Cloudy 39 4 29 -1.9 66 66 NNW 8 13 30.46 1032 10 16.0934 0 0
3:35 pm 15:35 Cloudy 39 3.9 28 -2.1 65 65 NNW 9 15 30.48 1032 10 16.0934 0 0
3:55 pm 15:55 Cloudy 39 3.9 29 -1.9 66 66 N 6 9 30.48 1032 10 16.0934 0 0
4:15 pm 16:15 Cloudy 39 3.9 29 -1.9 66 66 NNW 5 7 30.48 1032 10 16.0934 0 0
4:35 pm 16:35 Cloudy 39 3.8 28 -2 66 66 NNW 5 7 30.49 1032 10 16.0934 0 0
4:55 pm 16:55 Cloudy 39 3.7 29 -1.9 67 67 N 5 7 30.49 1032 10 16.0934 0 0
5:15 pm 17:15 Cloudy 38 3.6 29 -1.7 69 69 NNW 3 6 30.49 1032 10 16.0934 0 0
5:35 pm 17:35 Cloudy 38 3.6 29 -1.8 68 68 Calm 30.48 1032 10 16.0934 0 0
5:55 pm 17:55 Cloudy 38 3.4 29 -1.6 70 70 Calm 30.48 1032 10 16.0934 0 0
6:15 pm 18:15 Cloudy 38 3.4 29 -1.6 70 70 Calm 30.48 1032 10 16.0934 0 0
6:35 pm 18:35 Cloudy 38 3.4 29 -1.7 70 70 Calm 30.48 1032 10 16.0934 0 0
6:55 pm 18:55 Cloudy 38 3.3 30 -1.3 72 72 Calm 30.49 1032 10 16.0934 0 0
7:15 pm 19:15 Cloudy 38 3.2 30 -1.3 73 73 Calm 30.5 1033 10 16.0934 0 0
7:35 pm 19:35 Cloudy 38 3.3 30 -1.3 72 72 Calm 30.49 1032 10 16.0934 0 0
7:55 pm 19:55 Cloudy 38 3.3 29 -1.4 72 72 Calm 30.49 1032 10 16.0934 0 0
8:15 pm 20:15 Cloudy 38 3.2 30 -1.3 73 73 Calm 30.49 1032 10 16.0934 0 0
8:35 pm 20:35 Cloudy 38 3.2 30 -1 74 74 Calm 30.49 1032 10 16.0934 0 0
8:55 pm 20:55 Cloudy 37 3 31 -0.6 77 77 Calm 30.49 1032 10 16.0934 0 0
9:15 pm 21:15 Mostly Cloudy 37 2.8 32 -0.2 81 81 Calm 30.49 1032 10 16.0934 0 0
9:35 pm 21:35 Mostly Cloudy 37 2.9 31 -0.4 79 79 Calm 30.49 1032 10 16.0934 0 0
9:55 pm 21:55 Cloudy 37 2.9 31 -0.5 79 79 Calm 30.48 1032 10 16.0934 0 0
10:15 pm 22:15 Partly Cloudy 37 2.8 32 0 82 82 Calm 30.47 1032 10 16.0934 0 0
10:35 pm 22:35 Clear 37 2.9 31 -0.6 78 78 Calm 30.47 1032 10 16.0934 0 0
10:55 pm 22:55 Partly Cloudy 37 2.7 31 -0.6 79 79 Calm 30.46 1031 10 16.0934 0 0
11:15 pm 23:15 Cloudy 38 3.1 30 -1 75 75 Calm 30.47 1032 10 16.0934 0 0
11:35 pm 23:35 Cloudy 37 2.9 31 -0.6 78 78 Calm 30.46 1031 10 16.0934 0 0
11:55 pm 23:55 Mostly Cloudy 37 3 31 -0.8 76 76 Calm 30.44 1031 10 16.0934 0 0

Powered by AerisWeather